| time (UTC) | temp F | wind direction | speed knots | gust knots | rain 1hr in | rain 24hr in | rain mn in | humidity % | barometer mb |
| 20260508094751 | 74 | 98 | 0.0 | 4.3 | 0.00 | 0.00 | 0.00 | 58 | 1015.4 |
| 20260508094245 | 74 | 104 | 0.9 | 6.1 | 0.00 | 0.00 | 0.00 | 58 | 1015.5 |
| 20260508093737 | 74 | 87 | 0.9 | 6.1 | 0.00 | 0.00 | 0.00 | 57 | 1015.3 |
| 20260508093232 | 74 | 76 | 0.0 | 4.3 | 0.00 | 0.00 | 0.00 | 59 | 1015.4 |
| 20260508092723 | 73 | 117 | 0.0 | 3.5 | 0.00 | 0.00 | 0.00 | 60 | 1015.4 |
| 20260508092220 | 73 | 124 | 0.9 | 4.3 | 0.00 | 0.00 | 0.00 | 61 | 1015.4 |
| 20260508091712 | 72 | 110 | 0.9 | 4.3 | 0.00 | 0.00 | 0.00 | 61 | 1015.4 |
| 20260508091204 | 72 | 92 | 0.9 | 3.5 | 0.00 | 0.00 | 0.00 | 61 | 1015.3 |
| 20260508090659 | 71 | 115 | 0.9 | 3.5 | 0.00 | 0.00 | 0.00 | 62 | 1015.4 |
| 20260508090153 | 71 | 115 | 0.0 | 3.5 | 0.00 | 0.00 | 0.00 | 63 | 1015.3 |
| 20260508085646 | 71 | 118 | 0.9 | 6.1 | 0.00 | 0.00 | 0.00 | 62 | 1015.3 |
| 20260508085141 | 71 | 104 | 0.9 | 6.1 | 0.00 | 0.00 | 0.00 | 62 | 1015.3 |
| 20260508084635 | 71 | 92 | 0.9 | 6.1 | 0.00 | 0.00 | 0.00 | 63 | 1015.3 |
| 20260508084130 | 70 | 86 | 1.7 | 6.1 | 0.00 | 0.00 | 0.00 | 62 | 1015.2 |
| 20260508082611 | 70 | 100 | 1.7 | 6.1 | 0.00 | 0.00 | 0.00 | 64 | 1015.1 |
| 20260508082105 | 70 | 119 | 1.7 | 6.1 | 0.00 | 0.00 | 0.00 | 64 | 1015.2 |
| 20260508081559 | 70 | 69 | 1.7 | 6.1 | 0.00 | 0.00 | 0.00 | 65 | 1015.2 |
| 20260508080559 | 71 | 136 | 1.7 | 5.2 | 0.00 | 0.00 | 0.00 | 64 | 1015.1 |
| 20260508075055 | 69 | 123 | 0.9 | 4.3 | 0.00 | 0.00 | 0.00 | 66 | 1015.0 |
| 20260508074555 | 69 | 115 | 0.9 | 5.2 | 0.00 | 0.00 | 0.00 | 67 | 1015.0 |
| 20260508074055 | 69 | 110 | 0.9 | 6.1 | 0.00 | 0.00 | 0.00 | 67 | 1015.0 |
| 20260508073557 | 68 | 88 | 0.9 | 6.1 | 0.00 | 0.00 | 0.00 | 67 | 1015.0 |
| 20260508073051 | 67 | 84 | 0.9 | 4.3 | 0.00 | 0.00 | 0.00 | 69 | 1014.8 |
| 20260508072551 | 67 | 127 | 0.9 | 3.5 | 0.00 | 0.00 | 0.00 | 70 | 1014.8 |
| 20260508071551 | 65 | 269 | 0.0 | 0.0 | 0.00 | 0.00 | 0.00 | 76 | 1014.8 |
| 20260508071049 | 64 | 270 | 0.0 | 0.0 | 0.00 | 0.00 | 0.00 | 78 | 1014.7 |
| 20260508070549 | 63 | 270 | 0.0 | 0.0 | 0.00 | 0.00 | 0.00 | 81 | 1014.8 |
| 20260508070101 | 62 | 270 | 0.0 | 0.0 | 0.00 | 0.00 | 0.00 | 83 | 1014.7 |
| 20260508065552 | 62 | 270 | 0.0 | 0.0 | 0.00 | 0.00 | 0.00 | 84 | 1014.7 |
| 20260508065049 | 61 | 270 | 0.0 | 0.0 | 0.00 | 0.00 | 0.00 | 85 | 1014.7 |
| 20260508064547 | 61 | 270 | 0.0 | 0.9 | 0.00 | 0.00 | 0.00 | 85 | 1014.7 |
| 20260508064043 | 60 | 276 | 0.0 | 2.6 | 0.00 | 0.00 | 0.00 | 86 | 1014.7 |
| 20260508063557 | 60 | 274 | 0.0 | 2.6 | 0.00 | 0.00 | 0.00 | 87 | 1014.6 |
| 20260508063041 | 59 | 273 | 0.0 | 0.9 | 0.00 | 0.00 | 0.00 | 87 | 1014.6 |
| 20260508062541 | 59 | 272 | 0.0 | 0.0 | 0.00 | 0.00 | 0.00 | 88 | 1014.6 |
| 20260508062041 | 58 | 272 | 0.0 | 0.0 | 0.00 | 0.00 | 0.00 | 88 | 1014.6 |
| 20260508061540 | 58 | 269 | 0.0 | 1.7 | 0.00 | 0.00 | 0.00 | 89 | 1014.5 |
| 20260508061037 | 57 | 269 | 0.0 | 1.7 | 0.00 | 0.00 | 0.00 | 89 | 1014.6 |
| 20260508060551 | 57 | 283 | 0.0 | 1.7 | 0.00 | 0.00 | 0.00 | 89 | 1014.6 |
| 20260508060037 | 56 | 285 | 0.0 | 2.6 | 0.00 | 0.00 | 0.00 | 89 | 1014.5 |
| 20260508055536 | 56 | 288 | 0.0 | 2.6 | 0.00 | 0.00 | 0.00 | 90 | 1014.5 |
| 20260508055035 | 56 | 264 | 0.0 | 0.9 | 0.00 | 0.00 | 0.00 | 90 | 1014.5 |
| 20260508054535 | 55 | 265 | 0.0 | 1.7 | 0.00 | 0.00 | 0.00 | 91 | 1014.4 |
| 20260508054037 | 55 | 266 | 0.0 | 3.5 | 0.00 | 0.00 | 0.00 | 91 | 1014.4 |
| 20260508053529 | 54 | 278 | 0.0 | 3.5 | 0.00 | 0.00 | 0.00 | 91 | 1014.5 |
| 20260508053029 | 54 | 281 | 0.0 | 2.6 | 0.00 | 0.00 | 0.00 | 91 | 1014.4 |
| 20260508052029 | 53 | 262 | 0.0 | 3.5 | 0.00 | 0.00 | 0.00 | 91 | 1014.4 |
| 20260508051531 | 53 | 263 | 0.9 | 5.2 | 0.00 | 0.00 | 0.00 | 91 | 1014.4 |
| 20260508051029 | 53 | 282 | 0.0 | 5.2 | 0.00 | 0.00 | 0.00 | 91 | 1014.4 |
| 20260508050030 | 52 | 283 | 0.0 | 2.6 | 0.00 | 0.00 | 0.00 | 91 | 1014.3 |
| 20260508045530 | 52 | 265 | 0.0 | 3.5 | 0.00 | 0.00 | 0.00 | 91 | 1014.3 |
| 20260508045026 | 52 | 278 | 0.0 | 3.5 | 0.00 | 0.00 | 0.00 | 91 | 1014.3 |
| 20260508044525 | 52 | 278 | 0.0 | 2.6 | 0.00 | 0.00 | 0.00 | 91 | 1014.3 |
| 20260508043525 | 51 | 286 | 0.0 | 2.6 | 0.00 | 0.00 | 0.00 | 91 | 1014.2 |
| 20260508043026 | 51 | 281 | 0.9 | 3.5 | 0.00 | 0.00 | 0.00 | 91 | 1014.2 |
| 20260508042525 | 51 | 279 | 0.9 | 4.3 | 0.00 | 0.00 | 0.00 | 90 | 1014.2 |
| 20260508041028 | 51 | 281 | 0.0 | 1.7 | 0.00 | 0.00 | 0.00 | 90 | 1014.1 |
| 20260508040522 | 51 | 286 | 0.0 | 1.7 | 0.00 | 0.00 | 0.00 | 91 | 1014.0 |
| 20260508040021 | 51 | 278 | 0.0 | 1.7 | 0.00 | 0.00 | 0.00 | 91 | 1014.1 |
| 20260508035523 | 51 | 274 | 0.9 | 3.5 | 0.00 | 0.00 | 0.00 | 91 | 1014.0 |
| 20260508034524 | 51 | 274 | 0.0 | 3.5 | 0.00 | 0.00 | 0.00 | 91 | 1014.0 |
| 20260508034018 | 51 | 279 | 0.9 | 3.5 | 0.00 | 0.00 | 0.00 | 91 | 1014.0 |
| 20260508033019 | 51 | 273 | 0.0 | 3.5 | 0.00 | 0.00 | 0.00 | 91 | 1013.9 |
| 20260508032517 | 51 | 273 | 0.0 | 2.6 | 0.00 | 0.00 | 0.00 | 90 | 1014.0 |
| 20260508031514 | 51 | 278 | 0.0 | 3.5 | 0.00 | 0.00 | 0.00 | 90 | 1013.9 |
| 20260508031012 | 51 | 284 | 0.9 | 3.5 | 0.00 | 0.00 | 0.00 | 90 | 1013.9 |
| 20260508030515 | 51 | 266 | 0.0 | 2.6 | 0.00 | 0.00 | 0.00 | 91 | 1013.9 |
| 20260508030013 | 50 | 278 | 0.0 | 1.7 | 0.00 | 0.00 | 0.00 | 91 | 1013.9 |
| 20260508025512 | 50 | 276 | 0.0 | 1.7 | 0.00 | 0.00 | 0.00 | 90 | 1014.0 |
| 20260508025009 | 51 | 269 | 0.0 | 0.0 | 0.00 | 0.00 | 0.00 | 90 | 1014.0 |
| 20260508024505 | 51 | 268 | 0.0 | 3.5 | 0.00 | 0.00 | 0.00 | 90 | 1013.9 |
| 20260508023958 | 51 | 267 | 0.0 | 3.5 | 0.00 | 0.00 | 0.00 | 90 | 1014.0 |
| 20260508023450 | 51 | 276 | 0.0 | 2.6 | 0.00 | 0.00 | 0.00 | 90 | 1014.1 |
| 20260508022944 | 51 | 280 | 0.9 | 4.3 | 0.00 | 0.00 | 0.00 | 90 | 1014.1 |
| 20260508022441 | 51 | 281 | 0.9 | 4.3 | 0.00 | 0.00 | 0.00 | 89 | 1014.1 |
| 20260508021933 | 51 | 279 | 0.0 | 1.7 | 0.00 | 0.00 | 0.00 | 89 | 1014.1 |
| 20260508021427 | 51 | 277 | 0.0 | 3.5 | 0.00 | 0.00 | 0.00 | 90 | 1014.1 |
| 20260508020920 | 51 | 278 | 0.0 | 3.5 | 0.00 | 0.00 | 0.00 | 89 | 1014.2 |
| 20260508020414 | 51 | 270 | 0.0 | 2.6 | 0.00 | 0.00 | 0.00 | 90 | 1014.2 |
| 20260508015908 | 52 | 266 | 0.0 | 1.7 | 0.00 | 0.00 | 0.00 | 90 | 1014.4 |
| 20260508015403 | 52 | 269 | 0.0 | 0.0 | 0.00 | 0.00 | 0.00 | 90 | 1014.5 |
| 20260508014858 | 52 | 269 | 0.0 | 0.0 | 0.00 | 0.00 | 0.00 | 90 | 1014.4 |
| 20260508014351 | 52 | 269 | 0.0 | 2.6 | 0.00 | 0.00 | 0.00 | 90 | 1014.5 |
| 20260508013844 | 52 | 273 | 0.0 | 2.6 | 0.00 | 0.00 | 0.00 | 90 | 1014.6 |
| 20260508013338 | 52 | 271 | 0.0 | 3.5 | 0.00 | 0.00 | 0.00 | 90 | 1014.7 |
| 20260508012845 | 52 | 278 | 0.0 | 3.5 | 0.00 | 0.00 | 0.00 | 90 | 1014.6 |
| 20260508012328 | 52 | 279 | 0.0 | 3.5 | 0.00 | 0.00 | 0.00 | 90 | 1014.7 |
| 20260508011825 | 52 | 280 | 0.0 | 3.5 | 0.00 | 0.00 | 0.00 | 90 | 1014.7 |
| 20260508010325 | 52 | 276 | 0.0 | 2.6 | 0.00 | 0.02 | 0.00 | 90 | 1014.9 |
| 20260508005820 | 52 | 273 | 0.0 | 5.2 | 0.00 | 0.03 | 0.00 | 90 | 1014.8 |
| 20260508005319 | 52 | 274 | 0.0 | 5.2 | 0.00 | 0.03 | 0.00 | 90 | 1014.8 |
| 20260508004816 | 51 | 274 | 0.0 | 2.6 | 0.00 | 0.03 | 0.00 | 90 | 1014.9 |
| 20260508004315 | 51 | 269 | 0.0 | 4.3 | 0.00 | 0.03 | 0.00 | 90 | 1014.8 |
| 20260508003813 | 51 | 285 | 0.0 | 4.3 | 0.00 | 0.03 | 0.00 | 90 | 1014.9 |
| 20260508003312 | 51 | 274 | 0.9 | 4.3 | 0.00 | 0.05 | 0.00 | 90 | 1015.0 |
| 20260508002811 | 51 | 277 | 0.9 | 4.3 | 0.00 | 0.06 | 0.00 | 90 | 1015.0 |
| 20260508002310 | 51 | 271 | 0.9 | 4.3 | 0.00 | 0.06 | 0.00 | 89 | 1015.1 |
| 20260508001809 | 51 | 274 | 0.9 | 4.3 | 0.00 | 0.07 | 0.00 | 89 | 1015.1 |
| 20260508001308 | 51 | 262 | 0.9 | 4.3 | 0.00 | 0.08 | 0.00 | 89 | 1015.2 |
| 20260508000307 | 52 | 267 | 0.0 | 3.5 | 0.00 | 0.09 | 0.00 | 89 | 1015.2 |
| 20260507235805 | 52 | 270 | 0.0 | 0.9 | 0.00 | 0.09 | 0.00 | 89 | 1015.2 |
| 20260507235307 | 52 | 267 | 0.0 | 1.7 | 0.00 | 0.09 | 0.00 | 89 | 1015.2 |
| 20260507233757 | 52 | 274 | 0.9 | 3.5 | 0.00 | 0.09 | 0.00 | 89 | 1015.4 |
| 20260507233252 | 52 | 270 | 0.0 | 3.5 | 0.00 | 0.09 | 0.00 | 89 | 1015.4 |
| 20260507232754 | 52 | 266 | 0.9 | 4.3 | 0.00 | 0.09 | 0.00 | 89 | 1015.4 |
| 20260507232252 | 52 | 281 | 0.9 | 4.3 | 0.00 | 0.10 | 0.00 | 88 | 1015.5 |
| 20260507231752 | 52 | 272 | 0.9 | 4.3 | 0.00 | 0.10 | 0.00 | 88 | 1015.5 |
| 20260507231251 | 52 | 279 | 0.0 | 4.3 | 0.00 | 0.10 | 0.00 | 88 | 1015.6 |
| 20260507230750 | 53 | 266 | 0.0 | 3.5 | 0.00 | 0.10 | 0.00 | 87 | 1015.7 |
| 20260507230249 | 53 | 270 | 0.9 | 4.3 | 0.00 | 0.10 | 0.00 | 87 | 1015.7 |
| 20260507225748 | 54 | 277 | 0.0 | 4.3 | 0.00 | 0.10 | 0.00 | 87 | 1016.1 |
| 20260507225247 | 54 | 265 | 0.0 | 3.5 | 0.00 | 0.10 | 0.00 | 88 | 1016.1 |
| 20260507224746 | 54 | 266 | 0.0 | 3.5 | 0.00 | 0.10 | 0.00 | 88 | 1016.3 |
| 20260507224246 | 53 | 266 | 0.0 | 2.6 | 0.00 | 0.10 | 0.00 | 88 | 1016.2 |
| 20260507223745 | 53 | 269 | 0.9 | 3.5 | 0.00 | 0.10 | 0.00 | 88 | 1016.3 |
| 20260507223242 | 53 | 263 | 0.9 | 3.5 | 0.00 | 0.10 | 0.00 | 88 | 1016.4 |
| 20260507222745 | 53 | 270 | 0.0 | 3.5 | 0.00 | 0.10 | 0.00 | 88 | 1016.3 |
| 20260507222242 | 53 | 264 | 0.0 | 3.5 | 0.00 | 0.10 | 0.00 | 88 | 1016.2 |
| 20260507221237 | 53 | 276 | 0.0 | 3.5 | 0.00 | 0.10 | 0.00 | 87 | 1016.1 |
| 20260507220749 | 53 | 281 | 0.9 | 3.5 | 0.00 | 0.10 | 0.00 | 87 | 1016.1 |
| 20260507215736 | 54 | 289 | 0.0 | 4.3 | 0.00 | 0.10 | 0.10 | 86 | 1016.1 |
| 20260507215237 | 54 | 272 | 0.9 | 4.3 | 0.00 | 0.10 | 0.10 | 85 | 1016.2 |
| 20260507214736 | 55 | 276 | 0.9 | 4.3 | 0.00 | 0.10 | 0.10 | 85 | 1016.0 |
| 20260507214238 | 55 | 269 | 0.0 | 3.5 | 0.00 | 0.10 | 0.10 | 85 | 1016.0 |
| 20260507213735 | 56 | 269 | 0.0 | 0.0 | 0.00 | 0.10 | 0.10 | 85 | 1016.0 |
| 20260507213232 | 56 | 269 | 0.0 | 0.0 | 0.00 | 0.10 | 0.10 | 85 | 1016.0 |
| 20260507212733 | 56 | 269 | 0.0 | 0.0 | 0.00 | 0.10 | 0.10 | 85 | 1016.0 |
| 20260507212233 | 56 | 269 | 0.0 | 0.0 | 0.00 | 0.10 | 0.10 | 85 | 1016.1 |
| 20260507211731 | 56 | 269 | 0.0 | 4.3 | 0.00 | 0.10 | 0.10 | 85 | 1016.0 |
| 20260507211229 | 56 | 274 | 0.0 | 4.3 | 0.00 | 0.10 | 0.10 | 85 | 1016.0 |
| 20260507210731 | 56 | 274 | 0.0 | 2.6 | 0.00 | 0.10 | 0.10 | 85 | 1016.0 |
| 20260507210228 | 56 | 274 | 0.9 | 3.5 | 0.00 | 0.10 | 0.10 | 85 | 1016.1 |
| 20260507205727 | 56 | 282 | 0.0 | 3.5 | 0.00 | 0.10 | 0.10 | 84 | 1016.0 |
| 20260507205226 | 57 | 266 | 0.0 | 0.9 | 0.00 | 0.10 | 0.10 | 84 | 1016.0 |
| 20260507204727 | 57 | 261 | 0.0 | 0.9 | 0.00 | 0.10 | 0.10 | 84 | 1016.0 |
| 20260507204227 | 57 | 248 | 0.0 | 2.6 | 0.00 | 0.10 | 0.10 | 84 | 1016.0 |
| 20260507203727 | 57 | 246 | 0.9 | 2.6 | 0.00 | 0.10 | 0.10 | 84 | 1015.8 |
| 20260507203226 | 57 | 270 | 0.9 | 2.6 | 0.00 | 0.10 | 0.10 | 83 | 1015.8 |
| 20260507202726 | 58 | 269 | 0.0 | 2.6 | 0.00 | 0.10 | 0.10 | 84 | 1015.8 |
| 20260507202221 | 58 | 264 | 0.0 | 0.0 | 0.00 | 0.10 | 0.10 | 84 | 1015.8 |
| 20260507201714 | 58 | 264 | 0.0 | 0.0 | 0.00 | 0.10 | 0.10 | 83 | 1015.8 |
| 20260507201210 | 58 | 264 | 0.0 | 0.0 | 0.00 | 0.10 | 0.10 | 83 | 1015.8 |
| 20260507200702 | 58 | 264 | 0.0 | 0.0 | 0.00 | 0.10 | 0.10 | 82 | 1015.8 |
| 20260507200157 | 58 | 264 | 0.0 | 2.6 | 0.00 | 0.10 | 0.10 | 82 | 1016.0 |
| 20260507195146 | 59 | 273 | 0.0 | 0.9 | 0.00 | 0.10 | 0.10 | 81 | 1015.7 |
| 20260507194638 | 59 | 273 | 0.0 | 3.5 | 0.00 | 0.10 | 0.10 | 81 | 1015.7 |
| 20260507194133 | 60 | 274 | 0.0 | 3.5 | 0.00 | 0.10 | 0.10 | 80 | 1015.7 |
| 20260507193626 | 60 | 269 | 0.0 | 3.5 | 0.00 | 0.10 | 0.10 | 80 | 1015.7 |
| 20260507193120 | 61 | 262 | 0.0 | 2.6 | 0.00 | 0.10 | 0.10 | 80 | 1015.7 |
| 20260507192615 | 61 | 262 | 0.0 | 2.6 | 0.00 | 0.10 | 0.10 | 80 | 1015.6 |
| 20260507192108 | 61 | 261 | 0.0 | 2.6 | 0.00 | 0.10 | 0.10 | 79 | 1015.6 |
| 20260507191603 | 61 | 265 | 0.0 | 2.6 | 0.00 | 0.10 | 0.10 | 78 | 1015.6 |
| 20260507191056 | 62 | 270 | 0.0 | 1.7 | 0.00 | 0.10 | 0.10 | 77 | 1015.5 |
| 20260507190549 | 62 | 273 | 0.0 | 0.0 | 0.00 | 0.10 | 0.10 | 76 | 1015.5 |
| 20260507190058 | 62 | 273 | 0.0 | 0.0 | 0.00 | 0.10 | 0.10 | 75 | 1015.5 |
| 20260507185540 | 63 | 273 | 0.0 | 0.0 | 0.00 | 0.10 | 0.10 | 75 | 1015.5 |
| 20260507185033 | 63 | 273 | 0.0 | 0.0 | 0.00 | 0.10 | 0.10 | 74 | 1015.4 |
| 20260507184523 | 64 | 274 | 0.0 | 0.9 | 0.00 | 0.10 | 0.10 | 74 | 1015.4 |
| 20260507184018 | 64 | 278 | 0.0 | 0.0 | 0.00 | 0.10 | 0.10 | 74 | 1015.5 |
| 20260507183514 | 65 | 278 | 0.0 | 0.0 | 0.00 | 0.10 | 0.10 | 73 | 1015.5 |
| 20260507183006 | 65 | 281 | 0.0 | 2.6 | 0.00 | 0.10 | 0.10 | 73 | 1015.6 |
| 20260507182500 | 66 | 281 | 0.0 | 2.6 | 0.00 | 0.10 | 0.10 | 72 | 1015.5 |
| 20260507181954 | 66 | 229 | 0.0 | 0.0 | 0.00 | 0.10 | 0.10 | 70 | 1015.5 |
| 20260507181454 | 67 | 229 | 0.0 | 0.0 | 0.00 | 0.10 | 0.10 | 69 | 1015.5 |
| 20260507180944 | 67 | 229 | 0.0 | 0.9 | 0.00 | 0.10 | 0.10 | 68 | 1015.4 |
| 20260507180436 | 68 | 229 | 0.0 | 0.9 | 0.00 | 0.10 | 0.10 | 67 | 1015.3 |
| 20260507175425 | 69 | 224 | 0.0 | 0.0 | 0.00 | 0.10 | 0.10 | 65 | 1015.3 |
| 20260507174921 | 70 | 224 | 0.0 | 0.0 | 0.00 | 0.10 | 0.10 | 65 | 1015.3 |
| 20260507174411 | 70 | 224 | 0.0 | 0.0 | 0.00 | 0.10 | 0.10 | 63 | 1015.2 |
| 20260507173908 | 70 | 224 | 0.0 | 0.0 | 0.00 | 0.10 | 0.10 | 62 | 1015.2 |
| 20260507173400 | 71 | 224 | 0.0 | 0.0 | 0.00 | 0.10 | 0.10 | 61 | 1015.2 |
| 20260507172348 | 72 | 224 | 0.0 | 0.0 | 0.00 | 0.10 | 0.10 | 60 | 1015.1 |
| 20260507171844 | 72 | 224 | 0.0 | 0.0 | 0.00 | 0.10 | 0.10 | 60 | 1015.1 |
| 20260507171337 | 73 | 224 | 0.0 | 0.0 | 0.00 | 0.10 | 0.10 | 55 | 1015.1 |
| 20260507170834 | 73 | 229 | 0.0 | 0.0 | 0.00 | 0.10 | 0.10 | 53 | 1015.1 |
| 20260507170326 | 73 | 229 | 0.0 | 0.0 | 0.00 | 0.10 | 0.10 | 53 | 1015.1 |
| 20260507165826 | 73 | 229 | 0.0 | 0.0 | 0.00 | 0.10 | 0.10 | 52 | 1015.1 |
| 20260507165326 | 73 | 229 | 0.0 | 0.0 | 0.00 | 0.10 | 0.10 | 53 | 1015.1 |
| 20260507164828 | 74 | 229 | 0.0 | 0.9 | 0.00 | 0.10 | 0.10 | 53 | 1015.1 |
| 20260507164324 | 74 | 228 | 0.0 | 0.9 | 0.00 | 0.10 | 0.10 | 53 | 1015.0 |
| 20260507163822 | 74 | 229 | 0.0 | 0.0 | 0.00 | 0.10 | 0.10 | 53 | 1015.0 |
| 20260507163323 | 74 | 228 | 0.0 | 2.6 | 0.00 | 0.10 | 0.10 | 52 | 1015.0 |
| 20260507162822 | 74 | 220 | 0.0 | 2.6 | 0.00 | 0.10 | 0.10 | 55 | 1015.0 |
| 20260507162322 | 73 | 150 | 0.0 | 0.0 | 0.00 | 0.10 | 0.10 | 56 | 1015.1 |
| 20260507161820 | 73 | 134 | 0.0 | 0.0 | 0.00 | 0.10 | 0.10 | 57 | 1015.0 |
| 20260507161322 | 73 | 134 | 0.0 | 1.7 | 0.00 | 0.10 | 0.10 | 59 | 1015.0 |
| 20260507160821 | 73 | 101 | 0.0 | 1.7 | 0.00 | 0.10 | 0.10 | 61 | 1015.0 |
| 20260507160319 | 73 | 101 | 0.0 | 1.7 | 0.00 | 0.10 | 0.10 | 59 | 1015.1 |
| 20260507155318 | 73 | 25 | 0.0 | 0.0 | 0.00 | 0.10 | 0.10 | 56 | 1015.2 |
| 20260507154819 | 73 | 24 | 0.0 | 0.0 | 0.00 | 0.10 | 0.10 | 54 | 1015.1 |
| 20260507154318 | 73 | 24 | 0.0 | 0.0 | 0.00 | 0.10 | 0.10 | 54 | 1015.1 |
| 20260507153316 | 73 | 1 | 0.0 | 0.0 | 0.00 | 0.10 | 0.10 | 56 | 1015.1 |
| 20260507152814 | 73 | 1 | 0.0 | 0.0 | 0.00 | 0.10 | 0.10 | 55 | 1015.1 |
| 20260507152313 | 73 | 0 | 0.0 | 0.0 | 0.00 | 0.10 | 0.10 | 56 | 1015.2 |
| 20260507151813 | 73 | 1 | 0.0 | 0.0 | 0.00 | 0.10 | 0.10 | 56 | 1015.1 |
| 20260507151312 | 74 | 1 | 0.0 | 0.0 | 0.00 | 0.10 | 0.10 | 54 | 1015.2 |
| 20260507150310 | 74 | 1 | 0.0 | 0.0 | 0.00 | 0.10 | 0.10 | 54 | 1015.2 |
| 20260507145810 | 75 | 1 | 0.0 | 0.0 | 0.00 | 0.10 | 0.10 | 54 | 1015.2 |
| 20260507145310 | 75 | 0 | 0.0 | 0.9 | 0.00 | 0.10 | 0.10 | 55 | 1015.2 |
| 20260507144310 | 74 | 80 | 0.0 | 0.0 | 0.00 | 0.10 | 0.10 | 55 | 1015.3 |
| 20260507143810 | 74 | 96 | 0.0 | 1.7 | 0.00 | 0.10 | 0.10 | 57 | 1015.4 |
| 20260507143306 | 73 | 96 | 0.0 | 4.3 | 0.00 | 0.10 | 0.10 | 57 | 1015.5 |
| 20260507142807 | 74 | 95 | 0.0 | 4.3 | 0.00 | 0.10 | 0.10 | 54 | 1015.5 |
| 20260507142308 | 75 | 290 | 0.0 | 0.9 | 0.00 | 0.10 | 0.10 | 55 | 1015.7 |
| 20260507141806 | 74 | 289 | 0.0 | 2.6 | 0.00 | 0.10 | 0.10 | 56 | 1015.8 |
| 20260507141309 | 74 | 289 | 0.0 | 2.6 | 0.00 | 0.10 | 0.10 | 58 | 1015.8 |
| 20260507135806 | 73 | 274 | 0.0 | 0.0 | 0.00 | 0.10 | 0.10 | 58 | 1016.1 |
| 20260507135307 | 73 | 274 | 0.0 | 0.9 | 0.00 | 0.10 | 0.10 | 57 | 1016.1 |
| 20260507134804 | 73 | 274 | 0.0 | 4.3 | 0.00 | 0.10 | 0.10 | 56 | 1016.2 |
| 20260507134303 | 73 | 290 | 0.0 | 4.3 | 0.00 | 0.10 | 0.10 | 58 | 1016.2 |
| 20260507133302 | 72 | 235 | 0.9 | 5.2 | 0.00 | 0.10 | 0.10 | 58 | 1016.3 |
| 20260507132803 | 73 | 285 | 0.0 | 5.2 | 0.00 | 0.10 | 0.10 | 59 | 1016.3 |
| 20260507131802 | 72 | 321 | 0.0 | 3.5 | 0.00 | 0.10 | 0.10 | 61 | 1016.5 |
| 20260507131302 | 72 | 287 | 0.0 | 1.7 | 0.00 | 0.10 | 0.10 | 61 | 1016.6 |
| 20260507130300 | 72 | 219 | 0.0 | 2.6 | 0.00 | 0.10 | 0.10 | 59 | 1016.6 |
| 20260507125758 | 72 | 204 | 0.0 | 2.6 | 0.00 | 0.10 | 0.10 | 58 | 1016.6 |
| 20260507124757 | 72 | 324 | 0.0 | 3.5 | 0.00 | 0.10 | 0.10 | 57 | 1016.6 |
| 20260507123756 | 72 | 262 | 0.0 | 3.5 | 0.00 | 0.10 | 0.10 | 60 | 1016.6 |
| 20260507122757 | 72 | 275 | 0.0 | 0.9 | 0.00 | 0.10 | 0.10 | 58 | 1016.6 |
| 20260507122256 | 72 | 274 | 0.9 | 4.3 | 0.00 | 0.10 | 0.10 | 58 | 1016.5 |
| 20260507121753 | 72 | 329 | 0.9 | 4.3 | 0.00 | 0.10 | 0.10 | 60 | 1016.6 |
| 20260507121251 | 72 | 262 | 0.0 | 4.3 | 0.00 | 0.10 | 0.10 | 60 | 1016.5 |
| 20260507120752 | 72 | 265 | 0.0 | 4.3 | 0.00 | 0.10 | 0.10 | 58 | 1016.5 |
| 20260507120251 | 72 | 317 | 0.0 | 4.3 | 0.00 | 0.10 | 0.10 | 56 | 1016.6 |
| 20260507115248 | 72 | 274 | 0.0 | 4.3 | 0.00 | 0.10 | 0.10 | 54 | 1016.7 |
| 20260507114248 | 72 | 98 | 0.0 | 2.6 | 0.00 | 0.10 | 0.10 | 54 | 1016.7 |
| 20260507113745 | 73 | 205 | 0.0 | 4.3 | 0.00 | 0.10 | 0.10 | 56 | 1016.7 |
| 20260507111742 | 71 | 288 | 1.7 | 6.1 | 0.00 | 0.10 | 0.10 | 56 | 1016.8 |
| 20260507111242 | 71 | 248 | 1.7 | 7.8 | 0.00 | 0.10 | 0.10 | 56 | 1016.8 |
| 20260507110742 | 71 | 249 | 1.7 | 7.8 | 0.00 | 0.10 | 0.10 | 56 | 1016.8 |
| 20260507110241 | 71 | 278 | 0.9 | 6.1 | 0.00 | 0.10 | 0.10 | 55 | 1016.8 |
| 20260507105742 | 71 | 297 | 0.9 | 4.3 | 0.00 | 0.10 | 0.10 | 56 | 1016.8 |
| 20260507105241 | 71 | 255 | 0.0 | 4.3 | 0.00 | 0.10 | 0.10 | 57 | 1016.9 |
| 20260507104742 | 70 | 191 | 0.9 | 5.2 | 0.00 | 0.10 | 0.10 | 58 | 1016.9 |
| 20260507104240 | 70 | 165 | 0.9 | 5.2 | 0.00 | 0.10 | 0.10 | 61 | 1016.9 |
| 20260507103737 | 70 | 289 | 0.9 | 5.2 | 0.00 | 0.10 | 0.10 | 60 | 1016.9 |
| 20260507103236 | 69 | 109 | 0.0 | 3.5 | 0.00 | 0.10 | 0.10 | 63 | 1017.0 |
| 20260507102733 | 70 | 124 | 0.0 | 2.6 | 0.00 | 0.10 | 0.10 | 65 | 1017.0 |
| 20260507102233 | 69 | 139 | 0.9 | 2.6 | 0.00 | 0.10 | 0.10 | 65 | 1017.0 |
| 20260507101736 | 70 | 97 | 0.9 | 2.6 | 0.00 | 0.10 | 0.10 | 63 | 1017.1 |
| 20260507100723 | 70 | 186 | 0.0 | 2.6 | 0.00 | 0.10 | 0.10 | 66 | 1017.2 |
| 20260507100223 | 70 | 167 | 0.0 | 2.6 | 0.00 | 0.10 | 0.10 | 65 | 1017.2 |
| 20260507095223 | 70 | 146 | 1.7 | 6.1 | 0.00 | 0.10 | 0.10 | 66 | 1017.1 |